Theta_e
318 318 318 318 318 318 318 318 318 317 317 317 317 317 317 317 316 317 313 320 319 324 319 316 312 312 313 310 312 310 303 300 303 304 306 311 308 313 315 314 315 318 321 330 343
318 318 318 319 318 318 318 317 318 318 318 317 316 316 316 316 315 314 325 328 323 321 313 310 308 309 306 307 309 306 302 302 308 308 307 309 309 309 310 310 312 314 320 331 340
318 318 318 318 317 318 318 317 317 317 317 317 317 316 316 316 312 316 327 329 325 322 316 313 311 308 304 306 306 306 301 306 308 308 309 307 306 309 307 306 311 312 316 325 336
317 317 318 317 317 317 317 317 317 317 316 317 316 316 316 316 303 322 325 328 324 319 314 311 309 304 303 302 307 303 306 307 308 308 307 305 308 306 308 308 313 314 317 321 327
317 317 317 318 317 317 317 317 317 316 316 315 315 316 314 310 310 322 326 325 321 317 312 308 306 305 302 304 305 303 305 307 307 307 307 307 305 305 306 310 312 313 314 316 320
318 317 317 317 317 317 316 316 316 316 316 315 315 315 311 303 318 322 322 320 315 314 310 309 307 308 306 305 304 306 306 306 306 306 307 304 305 306 307 310 309 310 311 314 316
317 317 317 317 317 316 317 316 315 315 315 316 317 314 307 309 317 319 319 319 317 315 310 312 313 309 308 304 308 306 301 304 304 305 305 307 303 304 309 311 309 309 311 312 314
316 315 316 316 316 316 316 316 315 315 316 318 317 312 304 320 321 318 320 316 320 319 316 316 314 310 308 308 303 301 302 298 305 307 307 306 299 307 311 311 309 310 310 311 313
315 315 315 315 315 316 315 315 315 315 316 317 313 308 305 320 314 317 318 315 316 318 318 315 312 307 306 300 299 302 297 299 302 307 306 305 302 308 312 311 310 310 310 310 312
315 314 314 314 315 315 314 314 316 313 315 314 312 302 310 309 314 316 318 318 314 314 311 309 306 303 302 299 292 296 297 300 300 305 305 303 303 308 311 311 310 311 311 311 312
314 314 313 313 313 313 313 314 312 306 309 308 309 308 310 314 316 313 316 314 314 308 301 305 300 297 299 301 301 301 300 300 303 306 304 304 304 307 310 311 311 312 312 313 313
314 313 313 312 312 312 312 310 313 313 305 313 313 313 315 314 309 311 316 309 307 300 303 301 296 302 303 302 300 300 300 299 303 305 305 304 304 308 309 310 311 312 313 313 314
313 312 312 312 311 313 314 312 316 315 307 309 314 312 313 314 308 309 311 310 304 301 301 299 300 303 301 299 298 299 299 299 299 303 305 303 301 304 308 310 311 312 313 314 315
313 312 312 312 309 312 308 316 320 318 301 304 307 310 313 312 306 314 312 310 305 301 302 301 304 301 299 298 300 297 302 301 301 299 295 304 294 304 307 307 309 311 311 314 316
312 312 311 310 307 305 312 316 320 317 289 307 307 317 313 308 308 309 312 309 302 302 302 299 300 300 299 299 303 300 304 302 301 299 299 299 297 301 307 304 307 310 311 315 316
311 310 310 308 311 312 316 316 316 299 289 303 308 305 305 305 306 308 306 310 309 304 304 303 307 304 302 304 304 305 302 302 302 300 293 298 297 298 302 305 307 311 313 315 317
310 310 309 310 305 315 316 311 298 292 303 301 302 306 303 302 303 304 301 299 298 295 296 300 301 304 305 301 304 303 300 292 291 291 291 300 297 300 305 308 309 311 312 315 317
308 308 310 313 316 314 314 303 292 297 299 305 305 303 299 301 302 302 300 297 300 298 296 293 291 301 304 302 298 301 300 294 288 289 292 299 294 300 307 311 312 311 313 316 317
306 311 312 315 318 315 307 296 296 299 303 301 303 298 299 302 301 301 298 298 299 301 295 295 294 303 304 305 304 300 297 303 296 298 293 295 300 306 309 309 309 310 313 315 317
308 309 311 321 320 312 304 296 300 305 305 303 297 300 294 292 297 298 298 303 301 304 306 301 295 302 303 305 305 302 303 296 297 289 287 293 295 296 303 306 309 310 312 315 316
308 302 316 321 318 307 299 299 302 306 306 301 301 299 297 292 292 296 299 303 306 304 305 305 301 299 302 300 298 300 298 300 300 297 290 289 292 306 305 307 309 311 313 314 315
306 297 317 319 302 305 300 302 302 305 306 305 305 301 299 297 294 296 293 296 307 307 302 305 302 295 299 305 306 304 301 301 296 294 294 294 293 309 310 310 311 311 313 315 316
302 302 313 315 297 301 305 303 303 305 303 303 302 301 298 298 294 296 298 301 307 306 303 305 301 294 295 300 306 302 303 304 302 300 297 292 294 308 311 310 312 312 313 314 316
303 296 309 310 308 302 300 299 299 305 305 305 304 302 299 299 301 296 298 300 306 307 304 309 303 298 292 293 299 298 301 302 301 298 296 296 297 305 307 309 310 312 313 314 315
303 300 302 296 299 300 302 301 298 296 305 306 303 302 298 295 298 297 300 299 303 304 305 306 298 301 300 299 297 296 299 301 299 300 296 298 299 301 305 305 306 308 308 308 310
300 297 302 299 300 298 298 299 299 299 299 300 300 302 301 297 299 296 299 299 299 303 304 305 297 299 297 300 298 295 299 300 300 301 300 300 299 305 305 307 307 308 309 308 309
307 306 300 298 299 297 298 297 297 298 302 304 302 301 298 300 303 304 304 304 303 301 301 300 298 296 291 295 294 291 295 296 298 299 299 294 300 306 304 305 306 307 307 308 310
Wind_Speed
12 12 11 11 10 11 12 12 12 11 11 11 12 14 15 16 18 21 21 13 3 9 5 11 16 17 15 16 17 9 15 17 21 22 17 11 10 12 10 16 8 13 16 4 5
12 12 11 11 11 10 11 11 12 12 12 11 12 12 14 16 21 25 19 14 10 6 13 16 18 19 16 17 12 16 14 22 19 14 14 8 12 8 13 15 16 16 18 4 4
12 12 12 13 14 12 12 12 13 13 13 12 12 13 14 16 19 10 13 18 16 14 21 17 14 19 20 15 20 18 21 18 17 8 12 15 16 13 15 19 19 17 19 14 10
12 13 13 14 15 14 13 14 14 14 13 13 11 12 15 15 9 10 8 11 15 18 20 18 15 20 19 20 19 21 18 18 19 9 13 16 16 18 18 19 18 19 19 13 12
12 13 14 14 13 13 13 14 15 15 14 14 12 11 12 14 23 10 13 14 15 19 21 19 20 20 20 18 17 21 19 16 15 16 17 17 19 20 21 20 18 20 22 20 13
12 13 14 14 13 14 14 13 13 13 15 16 15 10 12 21 13 6 9 15 15 19 19 20 15 18 17 19 15 15 19 20 17 17 16 18 20 18 16 14 18 22 24 24 20
12 14 15 15 15 16 15 15 14 15 17 19 15 11 15 25 2 7 12 17 16 18 16 17 14 12 11 13 15 15 16 17 19 19 18 13 17 22 21 20 21 21 20 25 26
13 14 15 16 17 16 17 16 17 18 20 16 9 10 12 13 15 21 15 17 19 15 17 12 13 13 17 13 4 18 18 18 20 23 19 13 14 11 11 13 17 20 20 22 23
14 14 16 17 18 18 18 18 21 20 15 6 8 8 12 10 18 19 20 17 18 14 13 10 12 16 14 16 14 17 17 21 15 13 8 15 13 10 8 8 11 13 16 18 21
15 14 15 18 18 19 18 23 19 5 8 6 5 6 11 13 11 16 20 17 17 18 17 15 13 16 17 15 16 16 18 19 14 12 12 14 16 14 13 14 10 10 13 17 19
17 17 16 19 20 18 18 14 9 8 10 13 11 16 10 2 4 12 22 18 18 21 18 22 18 21 22 23 21 15 18 20 16 10 7 12 12 14 11 14 9 9 10 13 14
18 18 19 20 21 20 15 9 7 12 18 22 29 24 23 4 7 12 22 22 20 22 23 16 22 22 20 20 20 21 14 11 10 11 9 13 15 11 13 12 9 7 7 10 11
14 18 19 21 25 16 9 15 17 14 11 18 20 23 21 19 17 18 25 24 22 24 23 18 15 21 20 18 19 19 18 15 13 12 11 12 15 18 15 8 7 6 7 5 7
16 17 18 20 17 12 15 4 6 3 10 10 9 7 17 16 16 17 28 24 16 23 22 19 19 17 15 20 19 18 17 16 12 11 13 19 13 12 9 5 10 5 3 7 10
17 18 17 10 16 10 13 8 6 6 10 11 8 10 19 21 5 21 27 26 21 21 17 17 18 12 19 19 19 16 11 15 17 16 15 16 9 11 15 9 11 7 3 6 4
19 20 18 14 13 16 15 7 7 9 10 6 9 12 19 19 4 17 23 27 19 20 22 20 16 18 16 17 16 14 13 10 11 12 15 17 15 14 12 13 12 11 5 5 4
23 24 18 14 12 10 10 9 9 11 2 4 1 5 6 16 20 15 22 26 21 17 17 19 17 18 16 19 18 19 11 12 13 14 13 17 18 14 7 5 5 9 4 3 5
25 30 13 11 13 14 8 12 15 12 11 10 6 11 10 3 13 18 15 20 20 16 6 11 15 17 13 19 19 20 16 14 14 12 14 21 13 8 4 13 6 3 2 1 5
31 10 9 6 9 9 11 15 17 11 7 2 3 2 3 8 10 15 18 21 19 23 18 18 18 16 20 16 16 17 18 18 18 13 8 6 8 9 9 12 8 6 2 4 4
11 13 8 8 9 10 12 21 22 19 10 5 12 4 4 4 10 16 18 20 24 30 21 8 13 15 12 17 20 21 14 12 9 15 15 14 18 8 14 13 11 9 6 3 2
10 8 8 6 8 10 13 19 20 15 4 3 10 6 5 6 5 14 9 3 19 18 18 18 10 6 5 13 18 16 20 11 15 12 11 14 3 2 6 13 11 7 7 4 1
7 8 8 6 6 8 16 23 14 14 3 8 6 3 7 12 6 1 5 5 7 7 18 18 9 12 19 10 5 14 9 19 12 17 3 11 3 7 6 3 3 5 7 4 4
9 8 8 6 7 10 17 24 11 24 4 7 2 1 4 6 3 1 6 10 12 2 3 4 7 8 6 13 15 12 20 16 11 4 13 8 1 11 4 5 5 2 5 6 2
7 6 4 6 11 13 15 15 15 14 14 6 9 5 3 5 3 5 6 2 10 6 4 8 6 9 6 3 10 14 18 14 12 9 9 11 11 19 8 3 5 4 5 4 6
6 2 3 8 7 11 15 17 19 7 12 6 7 10 8 7 11 8 11 6 10 4 4 3 8 13 10 9 7 14 9 13 13 10 13 13 16 18 18 5 7 9 11 13 11
7 8 10 14 18 15 10 15 19 12 10 3 6 13 14 12 3 4 9 10 9 7 6 4 7 5 11 12 9 14 12 11 10 13 12 13 13 11 7 9 8 8 8 10 12
5 6 7 12 15 13 2 8 12 18 11 3 5 9 6 8 5 7 6 7 7 6 6 5 7 6 10 2 4 11 14 17 15 14 11 12 4 11 4 5 5 5 4 9 10
Wind_Direction
345 343 341 338 333 330 328 325 323 321 320 317 317 320 320 314 298 261 256 248 208 155 222 246 201 210 225 232 226 234 256 245 244 249 249 261 275 283 250 271 261 274 230 21 34
336 335 333 331 330 326 322 321 318 315 315 315 317 315 313 312 297 280 254 149 132 176 212 206 196 200 213 216 207 228 227 243 256 284 281 274 292 275 274 252 245 246 255 98 232
335 332 332 330 327 325 321 317 316 313 310 311 314 315 311 306 290 280 16 152 166 188 238 216 206 199 217 216 211 219 245 255 257 264 294 287 279 274 260 256 258 256 232 196 210
329 327 324 325 325 323 317 315 313 311 310 304 312 308 309 292 272 65 61 180 175 203 221 219 214 207 217 213 225 235 250 254 268 264 260 259 270 264 260 260 272 273 272 255 175
321 320 318 317 320 317 313 310 309 307 305 302 299 299 294 241 249 248 121 146 178 201 210 209 213 210 222 227 228 238 244 245 246 262 260 265 264 267 263 266 260 264 268 264 240
316 316 315 316 317 312 308 303 297 298 299 297 285 281 255 260 266 154 172 172 187 200 210 213 216 219 239 254 232 228 236 257 249 250 248 256 264 261 256 252 254 249 252 256 251
319 319 319 317 314 311 306 301 297 290 294 291 275 242 255 238 291 219 202 200 206 206 209 220 224 243 226 258 245 253 253 246 239 243 244 252 262 256 258 253 250 240 242 244 245
333 326 320 315 313 308 306 297 293 295 298 288 252 213 249 251 237 248 236 206 216 203 234 218 235 246 249 258 236 232 237 251 238 212 213 212 263 277 258 247 227 242 246 247 247
330 318 319 317 315 309 305 296 287 284 280 241 194 218 257 167 231 241 221 207 199 211 216 244 225 225 219 242 233 218 239 222 224 184 229 182 254 268 312 270 256 239 240 244 242
322 320 318 317 312 306 303 289 287 276 238 182 282 219 250 246 204 208 213 211 186 191 197 205 212 215 225 212 228 219 216 254 214 153 225 213 237 262 257 259 255 243 239 235 235
325 322 320 313 312 309 313 299 196 180 218 217 212 227 280 278 180 209 192 206 187 192 192 196 209 211 212 220 235 245 258 226 205 206 214 255 262 267 271 275 269 253 236 249 237
318 317 316 311 306 302 286 255 324 327 294 238 241 248 250 268 230 186 175 197 196 197 203 179 219 223 224 221 228 246 245 245 251 236 237 263 250 261 280 260 268 311 252 239 232
304 307 311 311 303 286 243 277 289 288 269 283 249 225 221 219 234 175 189 196 192 204 201 208 216 224 220 220 219 232 230 226 242 219 220 266 265 252 244 230 249 256 288 306 231
310 308 309 317 282 349 285 300 274 240 273 225 188 220 192 205 220 187 195 200 193 203 214 213 224 209 204 222 209 218 214 239 243 250 248 226 252 238 192 195 201 215 281 2 346
310 305 303 298 297 283 306 314 348 220 280 150 127 122 168 203 259 184 188 204 192 211 221 211 237 201 205 214 207 233 212 220 225 232 248 254 246 271 169 204 230 161 157 75 12
306 299 303 281 236 244 276 289 253 237 244 146 133 179 176 211 238 164 184 215 237 216 209 228 208 211 219 223 221 229 239 236 243 236 230 234 246 235 234 187 201 130 97 53 26
306 297 285 273 255 270 203 232 231 244 186 133 144 115 248 204 208 195 186 201 215 221 218 211 209 217 223 216 196 228 198 216 214 217 235 223 220 242 75 85 100 84 74 53 349
305 298 266 247 223 249 240 218 247 274 282 140 135 197 207 290 236 194 196 201 216 257 234 230 216 202 187 236 205 207 215 247 210 207 227 199 223 200 116 100 97 125 64 31 20
309 288 275 228 206 195 216 224 240 252 340 84 202 293 258 246 227 217 193 213 200 207 213 205 218 216 225 219 240 212 215 240 271 276 263 307 237 130 156 149 163 162 164 69 59
307 292 254 105 182 200 231 245 262 293 346 336 281 250 192 18 276 202 206 227 204 214 212 246 231 206 204 213 220 239 233 219 230 257 238 205 205 247 164 181 160 158 137 109 85
273 285 89 146 189 210 234 241 242 284 260 260 289 231 168 138 313 253 281 236 197 224 212 219 215 256 118 229 211 206 230 223 255 239 257 255 115 355 40 1 157 135 115 139 74
295 290 96 164 208 232 244 250 321 223 204 274 306 312 230 172 214 280 30 339 356 218 203 225 237 179 205 316 17 260 265 220 233 213 162 307 42 300 172 216 81 135 134 100 344
300 290 163 206 257 254 259 276 299 257 320 250 167 211 354 212 151 228 102 278 303 227 324 274 214 218 208 238 228 234 200 214 244 301 257 252 150 346 239 182 124 261 133 155 222
282 292 156 217 291 288 290 285 289 320 247 238 132 154 284 244 167 169 182 150 282 244 50 256 233 244 248 148 337 249 230 237 263 263 255 235 193 214 215 166 151 184 246 268 319
245 315 40 297 293 294 293 290 286 243 268 187 191 217 175 282 178 183 154 157 276 116 241 282 259 230 154 150 211 268 280 255 228 252 244 267 278 190 199 305 325 317 300 294 282
308 327 331 289 279 273 287 292 311 329 272 238 207 181 180 227 332 132 176 174 183 210 231 201 270 288 267 204 176 274 274 275 248 222 233 247 283 299 327 14 332 324 329 316 294
338 315 286 289 279 276 332 341 314 300 263 333 264 270 196 61 34 48 26 29 46 282 218 251 259 215 260 290 348 264 242 236 240 242 251 253 337 39 2 20 358 331 9 353 8